Terug naar catalogus

STARLINK-3173

ActiefCommunicatieVLEO
NORAD 51111·PAYLOAD·🇺🇸 United States

Gelanceerd Jan 19, 2022 vanaf Cape Canaveral Space Force Station

Loading…

Volgende Passages (komende 24 uur)

TLE

VersSource: CelesTrak SupGP

Epoch: Sep 15, 2026, 02:46 UTC

1 51111C 22005H   26258.11576389  .00046151  00000+0  13208-2 0  2581
2 51111  53.1583 149.2673 0001281  83.7855 101.0419 15.35367289    12

Volg STARLINK-3173 in realtime met AllMySat

Download on the App Store